When you browse on this site, cookies collect data to enhance your experience and personalize the content and advertising you see.
Visit our Privacy Policy to learn more. By continuing to use the site, you agree to this use of cookies and data.
  • In Romania
  • List of Countries
  • For 7 days
  • Water Temperature
  • Satellite Maps
  • Weather Map
  • Weather Widgets
  • user-avatar
    Login

    Hourly Weather Kudashevo

    Today, 20 April, Saturday

    Time Temperature Precipitation Wind Pressure Humidity
    00:00 +7°C° 0 mm 1 mps 754 mmHg 50%
    01:00 +6°C° 0 mm 1 mps 754 mmHg 52%
    02:00 +6°C° 0 mm 1 mps 754 mmHg 53%
    03:00 +5°C° 0 mm 1 mps 754 mmHg 54%
    04:00 +5°C° 0 mm 1 mps 754 mmHg 56%
    05:00 +5°C° 0 mm 1 mps 754 mmHg 58%
    06:00 +5°C° 0 mm 1 mps 753 mmHg 60%
    07:00 +6°C° 0 mm 1 mps 753 mmHg 55%
    08:00 +7°C° 0 mm 2 mps 753 mmHg 51%
    09:00 +8°C° 0 mm 2 mps 753 mmHg 47%
    10:00 +9°C° 0 mm 2 mps 753 mmHg 43%
    11:00 +10°C° 0 mm 3 mps 753 mmHg 40%
    12:00 +11°C° 0 mm 3 mps 753 mmHg 37%
    13:00 +12°C° 0 mm 3 mps 753 mmHg 36%
    14:00 +12°C° 0 mm 3 mps 752 mmHg 35%
    15:00 +12°C° 0 mm 3 mps 752 mmHg 34%
    16:00 +12°C° 0 mm 3 mps 752 mmHg 36%
    17:00 +12°C° 0 mm 3 mps 752 mmHg 38%
    18:00 +13°C° 0 mm 2 mps 752 mmHg 40%
    19:00 +12°C° 0 mm 2 mps 752 mmHg 42%
    20:00 +10°C° 0 mm 2 mps 752 mmHg 45%
    21:00 +10°C° 0 mm 1 mps 753 mmHg 47%
    22:00 +10°C° 0 mm 1 mps 753 mmHg 48%
    23:00 +10°C° 0 mm 1 mps 753 mmHg 49%

    Tomorrow, 21 April, Sunday

    Time Temperature Precipitation Wind Pressure Humidity
    00:00 +9°C° 0 mm 1 mps 753 mmHg 50%
    01:00 +9°C° 0 mm 1 mps 753 mmHg 50%
    02:00 +9°C° 0 mm 1 mps 753 mmHg 51%
    03:00 +8°C° 0 mm 1 mps 753 mmHg 52%
    04:00 +8°C° 0 mm 1 mps 753 mmHg 54%
    05:00 +8°C° 0 mm 1 mps 754 mmHg 55%
    06:00 +8°C° 0 mm 1 mps 754 mmHg 56%
    07:00 +9°C° 0 mm 1 mps 754 mmHg 52%
    08:00 +10°C° 0 mm 1 mps 754 mmHg 47%
    09:00 +12°C° 0 mm 1 mps 755 mmHg 43%
    10:00 +13°C° 0 mm 1 mps 755 mmHg 39%
    11:00 +13°C° 0 mm 1 mps 755 mmHg 35%
    12:00 +14°C° 0 mm 1 mps 755 mmHg 32%
    13:00 +14°C° 0 mm 1 mps 755 mmHg 31%
    14:00 +14°C° 0 mm 0 mps 755 mmHg 31%
    15:00 +14°C° 0 mm 0 mps 755 mmHg 31%
    16:00 +14°C° 0 mm 0 mps 754 mmHg 31%
    17:00 +13°C° 0 mm 0 mps 754 mmHg 31%
    18:00 +13°C° 0 mm 0 mps 754 mmHg 31%
    19:00 +13°C° 0 mm 0 mps 754 mmHg 34%
    20:00 +13°C° 0 mm 1 mps 755 mmHg 37%
    21:00 +12°C° 0 mm 1 mps 755 mmHg 40%
    22:00 +12°C° 0 mm 1 mps 755 mmHg 42%
    23:00 +11°C° 0 mm 1 mps 755 mmHg 44%

    Day after tomorrow, 22 April, Monday

    Time Temperature Precipitation Wind Pressure Humidity
    00:00 +11°C° 0 mm 1 mps 755 mmHg 46%
    01:00 +10°C° 0 mm 1 mps 755 mmHg 48%
    02:00 +10°C° 0 mm 1 mps 756 mmHg 50%
    03:00 +10°C° 0 mm 1 mps 756 mmHg 51%
    04:00 +9°C° 0 mm 1 mps 756 mmHg 53%
    05:00 +9°C° 0 mm 1 mps 756 mmHg 55%
    06:00 +9°C° 0 mm 1 mps 756 mmHg 57%
    07:00 +9°C° 0 mm 2 mps 756 mmHg 53%
    08:00 +10°C° 0 mm 2 mps 756 mmHg 49%
    09:00 +13°C° 0 mm 2 mps 756 mmHg 46%
    10:00 +13°C° 0 mm 2 mps 756 mmHg 42%
    11:00 +14°C° 0 mm 2 mps 756 mmHg 39%
    12:00 +15°C° 0 mm 1 mps 756 mmHg 35%
    13:00 +15°C° 0 mm 1 mps 756 mmHg 35%
    14:00 +15°C° 0 mm 2 mps 756 mmHg 35%
    15:00 +15°C° 0 mm 2 mps 756 mmHg 35%
    16:00 +15°C° 0 mm 2 mps 755 mmHg 38%
    17:00 +15°C° 0 mm 1 mps 755 mmHg 40%
    18:00 +15°C° 0 mm 1 mps 755 mmHg 42%
    19:00 +14°C° 0 mm 1 mps 755 mmHg 45%
    20:00 +13°C° 0 mm 2 mps 756 mmHg 48%
    21:00 +13°C° 0 mm 2 mps 756 mmHg 50%
    22:00 +12°C° 0 mm 2 mps 756 mmHg 53%
    23:00 +12°C° 0 mm 2 mps 756 mmHg 56%

    23 April, Tuesday

    Time Temperature Precipitation Wind Pressure Humidity
    00:00 +10°C° 0 mm 2 mps 756 mmHg 59%
    01:00 +10°C° 0 mm 2 mps 756 mmHg 61%
    02:00 +9°C° 0 mm 2 mps 756 mmHg 63%
    03:00 +9°C° 0 mm 2 mps 756 mmHg 65%
    04:00 +9°C° 0 mm 2 mps 756 mmHg 66%
    05:00 +9°C° 0 mm 2 mps 757 mmHg 66%
    06:00 +9°C° 0 mm 2 mps 757 mmHg 67%
    07:00 +10°C° 0 mm 2 mps 757 mmHg 61%
    08:00 +13°C° 0 mm 2 mps 757 mmHg 55%
    09:00 +14°C° 0 mm 2 mps 757 mmHg 50%
    10:00 +15°C° 0 mm 2 mps 757 mmHg 45%
    11:00 +16°C° 0 mm 3 mps 757 mmHg 40%
    12:00 +17°C° 0 mm 3 mps 757 mmHg 35%
    13:00 +18°C° 0 mm 3 mps 757 mmHg 35%
    14:00 +18°C° 0 mm 3 mps 756 mmHg 35%
    15:00 +18°C° 0 mm 3 mps 756 mmHg 36%
    16:00 +18°C° 0 mm 3 mps 756 mmHg 38%
    17:00 +18°C° 0 mm 3 mps 756 mmHg 39%
    18:00 +17°C° 0 mm 3 mps 756 mmHg 41%
    19:00 +16°C° 0 mm 3 mps 756 mmHg 46%
    20:00 +14°C° 0 mm 3 mps 756 mmHg 50%
    21:00 +13°C° 0 mm 2 mps 756 mmHg 55%
    22:00 +12°C° 0 mm 3 mps 756 mmHg 58%
    23:00 +11°C° 0 mm 3 mps 757 mmHg 61%

    24 April, Wednesday

    Time Temperature Precipitation Wind Pressure Humidity
    00:00 +11°C° 0 mm 3 mps 757 mmHg 63%
    01:00 +10°C° 0 mm 3 mps 757 mmHg 65%
    02:00 +10°C° 0 mm 3 mps 757 mmHg 67%
    03:00 +10°C° 0 mm 3 mps 757 mmHg 68%
    04:00 +9°C° 0 mm 2 mps 758 mmHg 69%
    05:00 +9°C° 0 mm 2 mps 758 mmHg 70%
    06:00 +9°C° 0 mm 2 mps 758 mmHg 71%
    07:00 +12°C° 0 mm 2 mps 758 mmHg 65%
    08:00 +13°C° 0 mm 3 mps 758 mmHg 58%
    09:00 +14°C° 0 mm 3 mps 758 mmHg 52%
    10:00 +17°C° 0 mm 3 mps 758 mmHg 47%
    11:00 +18°C° 0 mm 3 mps 758 mmHg 41%
    12:00 +19°C° 0 mm 3 mps 758 mmHg 36%
    13:00 +19°C° 0 mm 3 mps 758 mmHg 35%
    14:00 +20°C° 0 mm 3 mps 757 mmHg 34%
    15:00 +20°C° 0 mm 3 mps 757 mmHg 32%
    16:00 +20°C° 0 mm 3 mps 757 mmHg 34%
    17:00 +20°C° 0 mm 3 mps 757 mmHg 36%
    18:00 +19°C° 0 mm 3 mps 757 mmHg 38%
    19:00 +18°C° 0 mm 2 mps 757 mmHg 41%
    20:00 +17°C° 0 mm 2 mps 757 mmHg 45%
    21:00 +15°C° 0 mm 2 mps 757 mmHg 49%
    22:00 +14°C° 0 mm 2 mps 757 mmHg 50%
    23:00 +14°C° 0 mm 2 mps 758 mmHg 51%

    25 April, Thursday

    Time Temperature Precipitation Wind Pressure Humidity
    00:00 +13°C° 0 mm 2 mps 758 mmHg 52%
    01:00 +13°C° 0 mm 2 mps 758 mmHg 54%
    02:00 +12°C° 0 mm 2 mps 758 mmHg 55%
    03:00 +12°C° 0 mm 2 mps 758 mmHg 57%
    04:00 +10°C° 0 mm 2 mps 758 mmHg 59%
    05:00 +10°C° 0 mm 2 mps 759 mmHg 61%
    06:00 +10°C° 0 mm 2 mps 759 mmHg 63%
    07:00 +13°C° 0 mm 2 mps 759 mmHg 58%
    08:00 +15°C° 0 mm 2 mps 759 mmHg 53%
    09:00 +16°C° 0 mm 2 mps 759 mmHg 49%
    10:00 +18°C° 0 mm 2 mps 759 mmHg 44%
    11:00 +19°C° 0 mm 2 mps 759 mmHg 40%
    12:00 +20°C° 0 mm 2 mps 759 mmHg 36%
    13:00 +20°C° 0 mm 2 mps 758 mmHg 34%
    14:00 +21°C° 0 mm 2 mps 758 mmHg 33%
    15:00 +21°C° 0 mm 2 mps 758 mmHg 32%
    16:00 +21°C° 0 mm 2 mps 758 mmHg 33%
    17:00 +21°C° 0 mm 2 mps 757 mmHg 35%
    18:00 +21°C° 0 mm 2 mps 757 mmHg 36%
    19:00 +20°C° 0 mm 1 mps 757 mmHg 39%
    20:00 +19°C° 0 mm 1 mps 757 mmHg 43%
    21:00 +16°C° 0 mm 1 mps 757 mmHg 47%
    22:00 +16°C° 0 mm 1 mps 757 mmHg 48%
    23:00 +15°C° 0 mm 1 mps 757 mmHg 49%
    Show more